| time (UTC) | temp F | wind direction | speed MPH | gust MPH | rain 1hr in | rain 24hr in | rain mn in | humidity % | barometer mb |
| 20260906013040 | 59 | 233 | 2.0 | 4.0 | 0.00 | 0.01 | 0.00 | 79 | 1018.9 |
| 20260906011536 | 60 | 220 | 2.0 | 4.0 | 0.00 | 0.01 | 0.00 | 79 | 1018.9 |
| 20260906001534 | 60 | 222 | 4.0 | 8.0 | 0.00 | 0.01 | 0.00 | 81 | 1019.3 |
| 20260906000037 | 59 | 218 | 3.0 | 8.0 | 0.00 | 0.01 | 0.00 | 82 | 1019.3 |
| 20260905233033 | 62 | 258 | 1.0 | 4.0 | 0.00 | 0.01 | 0.00 | 75 | 1019.1 |
| 20260905231534 | 62 | 281 | 1.0 | 3.0 | 0.00 | 0.01 | 0.00 | 72 | 1019.1 |
| 20260905230038 | 62 | 273 | 1.0 | 4.0 | 0.00 | 0.01 | 0.00 | 69 | 1019.2 |
| 20260905224539 | 63 | 281 | 2.0 | 4.0 | 0.00 | 0.01 | 0.00 | 65 | 1019.2 |
| 20260905223035 | 64 | 334 | 1.0 | 4.0 | 0.00 | 0.01 | 0.00 | 64 | 1019.2 |
| 20260905221533 | 63 | 49 | 1.0 | 5.0 | 0.00 | 0.04 | 0.00 | 64 | 1019.2 |
| 20260905220041 | 63 | 44 | 2.0 | 5.0 | 0.00 | 0.04 | 0.00 | 65 | 1019.2 |
| 20260905214535 | 64 | 34 | 1.0 | 3.0 | 0.00 | 0.04 | 0.00 | 63 | 1019.2 |
| 20260905213034 | 65 | 14 | 2.0 | 6.0 | 0.00 | 0.04 | 0.00 | 61 | 1019.3 |
| 20260905210038 | 65 | 40 | 0.0 | 4.0 | 0.00 | 0.04 | 0.00 | 62 | 1019.6 |
| 20260905204533 | 65 | 354 | 2.0 | 7.0 | 0.00 | 0.04 | 0.00 | 64 | 1019.6 |
| 20260905203032 | 63 | 3 | 1.0 | 4.0 | 0.00 | 0.04 | 0.00 | 66 | 1019.5 |
| 20260905200041 | 62 | 54 | 3.0 | 9.0 | 0.00 | 0.04 | 0.00 | 67 | 1019.7 |
| 20260905194533 | 62 | 55 | 3.0 | 7.0 | 0.00 | 0.04 | 0.00 | 69 | 1019.8 |
| 20260905193036 | 62 | 38 | 4.0 | 11.0 | 0.00 | 0.04 | 0.00 | 70 | 1019.9 |
| 20260905191534 | 60 | 18 | 3.0 | 8.0 | 0.00 | 0.04 | 0.00 | 74 | 1020.0 |
| 20260905184531 | 59 | 23 | 6.0 | 11.0 | 0.00 | 0.04 | 0.00 | 76 | 1020.3 |
| 20260905183035 | 58 | 17 | 5.0 | 10.0 | 0.00 | 0.04 | 0.00 | 80 | 1020.4 |
| 20260905181536 | 56 | 19 | 5.0 | 9.0 | 0.00 | 0.04 | 0.00 | 82 | 1020.5 |
| 20260905180116 | 56 | 26 | 3.0 | 9.0 | 0.00 | 0.04 | 0.00 | 85 | 1020.5 |
| 20260905174534 | 56 | 70 | 2.0 | 6.0 | 0.00 | 0.04 | 0.00 | 88 | 1020.4 |
| 20260905173032 | 55 | 90 | 1.0 | 4.0 | 0.00 | 0.04 | 0.00 | 89 | 1020.4 |
| 20260905171613 | 55 | 40 | 2.0 | 4.0 | 0.00 | 0.04 | 0.00 | 90 | 1020.3 |
| 20260905170035 | 55 | 38 | 2.0 | 5.0 | 0.00 | 0.04 | 0.00 | 89 | 1020.3 |
| 20260905164536 | 55 | 119 | 0.0 | 3.0 | 0.00 | 0.04 | 0.00 | 90 | 1020.2 |
| 20260905163036 | 54 | 135 | 0.0 | 2.0 | 0.00 | 0.04 | 0.00 | 91 | 1020.2 |
| 20260905161537 | 53 | 135 | 0.0 | 2.0 | 0.00 | 0.04 | 0.00 | 93 | 1020.1 |
| 20260905160039 | 52 | 62 | 0.0 | 1.0 | 0.00 | 0.04 | 0.00 | 94 | 1020.1 |
| 20260905154537 | 52 | 337 | 0.0 | 2.0 | 0.00 | 0.04 | 0.00 | 95 | 1020.0 |
| 20260905151536 | 51 | 3 | 1.0 | 4.0 | 0.00 | 0.04 | 0.00 | 95 | 1020.0 |
| 20260905150037 | 50 | 315 | 0.0 | 2.0 | 0.00 | 0.04 | 0.00 | 96 | 1020.0 |
| 20260905144539 | 50 | 315 | 0.0 | 2.0 | 0.00 | 0.04 | 0.00 | 96 | 1019.9 |
| 20260905141538 | 49 | 306 | 2.0 | 4.0 | 0.00 | 0.05 | 0.00 | 96 | 1019.8 |
| 20260905140036 | 48 | 291 | 1.0 | 4.0 | 0.00 | 0.05 | 0.00 | 96 | 1019.6 |
| 20260905133037 | 48 | 277 | 3.0 | 4.0 | 0.00 | 0.05 | 0.00 | 95 | 1019.3 |
| 20260905131535 | 48 | 336 | 1.0 | 3.0 | 0.00 | 0.05 | 0.00 | 95 | 1019.3 |
| 20260905130035 | 49 | 309 | 1.0 | 3.0 | 0.00 | 0.05 | 0.00 | 96 | 1019.2 |
| 20260905124537 | 49 | 292 | 3.0 | 5.0 | 0.00 | 0.05 | 0.00 | 96 | 1019.2 |
| 20260905123039 | 49 | 272 | 3.0 | 5.0 | 0.00 | 0.05 | 0.00 | 96 | 1019.3 |
| 20260905121537 | 49 | 254 | 2.0 | 4.0 | 0.00 | 0.05 | 0.00 | 96 | 1019.4 |
| 20260905120039 | 49 | 314 | 2.0 | 3.0 | 0.00 | 0.05 | 0.00 | 96 | 1019.2 |
| 20260905114536 | 49 | 315 | 2.0 | 4.0 | 0.00 | 0.05 | 0.00 | 96 | 1019.2 |
| 20260905113035 | 49 | 315 | 2.0 | 3.0 | 0.00 | 0.05 | 0.00 | 96 | 1019.2 |
| 20260905111537 | 49 | 315 | 1.0 | 4.0 | 0.00 | 0.05 | 0.00 | 95 | 1019.0 |
| 20260905110040 | 49 | 315 | 1.0 | 3.0 | 0.00 | 0.05 | 0.00 | 95 | 1019.0 |
| 20260905104535 | 49 | 306 | 2.0 | 4.0 | 0.00 | 0.05 | 0.00 | 95 | 1019.0 |
| 20260905103038 | 49 | 292 | 2.0 | 4.0 | 0.00 | 0.05 | 0.00 | 95 | 1019.0 |
| 20260905101535 | 49 | 292 | 2.0 | 4.0 | 0.00 | 0.05 | 0.00 | 95 | 1019.0 |
| 20260905100036 | 49 | 285 | 2.0 | 4.0 | 0.00 | 0.05 | 0.00 | 95 | 1019.0 |
| 20260905094539 | 49 | 270 | 2.0 | 3.0 | 0.00 | 0.05 | 0.00 | 95 | 1019.2 |
| 20260905093037 | 49 | 289 | 2.0 | 4.0 | 0.00 | 0.05 | 0.00 | 94 | 1019.2 |
| 20260905091536 | 49 | 292 | 1.0 | 3.0 | 0.00 | 0.05 | 0.00 | 94 | 1019.1 |
| 20260905090115 | 50 | 292 | 2.0 | 3.0 | 0.00 | 0.05 | 0.00 | 94 | 1019.0 |
| 20260905084535 | 50 | 300 | 2.0 | 4.0 | 0.00 | 0.05 | 0.00 | 94 | 1019.0 |
| 20260905083111 | 50 | 315 | 2.0 | 3.0 | 0.00 | 0.05 | 0.00 | 94 | 1018.9 |
| 20260905081536 | 50 | 315 | 2.0 | 4.0 | 0.00 | 0.05 | 0.00 | 93 | 1018.9 |
| 20260905080039 | 50 | 296 | 2.0 | 4.0 | 0.00 | 0.05 | 0.00 | 93 | 1018.8 |
| 20260905074536 | 51 | 290 | 2.0 | 4.0 | 0.00 | 0.05 | 0.00 | 92 | 1018.5 |
| 20260905073031 | 51 | 236 | 2.0 | 5.0 | 0.00 | 0.05 | 0.00 | 92 | 1018.5 |
| 20260905071530 | 51 | 239 | 4.0 | 6.0 | 0.00 | 0.05 | 0.00 | 91 | 1018.4 |
| 20260905070107 | 52 | 166 | 2.0 | 5.0 | 0.01 | 0.05 | 0.00 | 89 | 1018.3 |
| 20260905063031 | 52 | 279 | 5.0 | 9.0 | 0.01 | 0.05 | 0.05 | 89 | 1018.0 |
| 20260905061532 | 52 | 266 | 4.0 | 7.0 | 0.01 | 0.05 | 0.04 | 88 | 1018.3 |
| 20260905054609 | 53 | 261 | 5.0 | 7.0 | 0.00 | 0.04 | 0.04 | 86 | 1018.2 |
| 20260905053105 | 53 | 257 | 4.0 | 6.0 | 0.00 | 0.04 | 0.04 | 86 | 1018.2 |
| 20260905050029 | 52 | 263 | 4.0 | 6.0 | 0.00 | 0.04 | 0.04 | 88 | 1018.2 |
| 20260905044638 | 51 | 274 | 5.0 | 6.0 | 0.00 | 0.04 | 0.04 | 89 | 1018.1 |
| 20260905043031 | 51 | 284 | 4.0 | 6.0 | 0.00 | 0.04 | 0.04 | 89 | 1018.0 |
| 20260905041604 | 51 | 281 | 4.0 | 5.0 | 0.00 | 0.04 | 0.04 | 89 | 1018.0 |
| 20260905040031 | 51 | 270 | 3.0 | 4.0 | 0.00 | 0.04 | 0.04 | 88 | 1017.9 |
| 20260905034606 | 51 | 270 | 2.0 | 4.0 | 0.00 | 0.04 | 0.04 | 88 | 1017.8 |
| 20260905033030 | 52 | 270 | 1.0 | 3.0 | 0.00 | 0.04 | 0.04 | 87 | 1017.6 |
| 20260905031530 | 52 | 288 | 2.0 | 3.0 | 0.00 | 0.04 | 0.04 | 86 | 1017.5 |
| 20260905030031 | 53 | 295 | 3.0 | 4.0 | 0.00 | 0.04 | 0.04 | 85 | 1017.4 |
| 20260905024529 | 54 | 296 | 4.0 | 6.0 | 0.00 | 0.04 | 0.04 | 84 | 1017.4 |
| 20260905023104 | 54 | 304 | 4.0 | 6.0 | 0.00 | 0.04 | 0.04 | 83 | 1017.4 |
| 20260905021532 | 55 | 306 | 4.0 | 7.0 | 0.00 | 0.04 | 0.04 | 82 | 1017.4 |
| 20260905020031 | 56 | 292 | 4.0 | 6.0 | 0.00 | 0.04 | 0.04 | 83 | 1017.3 |